DECAYED

NOAA 16 DEB, 41135 (Decayed)

Orbit data source: Space-Track

NOAA 16 DEB, 41135 was space debris in SSO originally from a launch on Thu, 21 Sep 2000 UTC launched from the Air Force Western Test Range (AFWTR). Debris objects in space refer to the collection of defunct objects orbiting the Earth. Examples of debris include non-operational satellites, rocket bodies, and fragments generated from explosions, collisions, or faulty payload assembly.

Loading next visibility...
Identifier
41135, 2000-055BS
Orbit
Decayed
Country
Flag of USUS
Related business
Manufacturer
Unknown
Mission
Decayed spacecraft
Bus & Motor
Unknown
Mass
Unknown
Launch date (UTC)
2000-09-21 (26 years ago)
Launch vehicle
Unknown
Launch site
Air Force Western Test Range (AFWTR)
Object type
Payload
Rocket body
Debris
Shape & HBR
Unknown shape, 0.1 m
Radar Cross Section
Small (<0.1 m²)

Expand to show TLE details & history
Last TLE update: 4 months ago

TLE from 4 months ago
0 NOAA 16 DEB
1 41135U 00055BS  26038.42816210  .02119426  00000-0  17951-1 0  9996
2 41135  98.8124 275.0431 0004723 103.6551 256.5230 15.66311175534839
Epoch: 2026-02-07T10:16Z
TLE epoch observation values (Epoch: 2026-02-07T10:16:33.205Z)
Latitude
-0.0001°
Longitude
-16.64707°
Altitude
373.323 km
Speed
7.685 km/s
True Right ascension
18h 20m 10s
True Declination
0° 00' 00"
Sunlit
Object was in daylight at epoch
Visualization orbit readout
Latitude
Unknown
Longitude
Unknown
Altitude
Unknown
Speed
Unknown
Apparent Right ascension
Unknown
Apparent Declination
Unknown
Sunlit
N/A
Visualization observer readout
Local Sidereal Time
17:34:11
Azimuth
Unknown
Elevation
Unknown
Doppler factor
Unknown
Orbital elements
Apogee altitude
369.627 km
Perigee altitude
363.256 km
Semi-major axis
6,744.579 km
Eccentricity
0.00047
Inclination
98.8124°
RAAN
275.0431°
Arg. of periapsis
103.6551°
True anomaly
256.47038°
Mean anomaly
256.523°
Eccentric anomaly
256.49669°
Mean motion
3.91842 °/min
Orbital period
91.87 mins
BSTAR
0.017951
Loading maneuver chart data...
Computing Atmospheric mass density...
Loading historical data...
Loading historical data...
Loading historical data...
Loading historical data...
Loading historical data...
Loading historical data...
Loading historical data...

Documentation

Showing up to 5 results
|